Theta_e
324 316 311 313 314 316 317 319 320 319 319 319 318 318 323 325 327 328 328 329 331 331 330 330 330 330 330 331 331 331 332 334 336 335 334 334 334 335 335 334 333 330 325 319 312 310 312 311 310 313 317 316 317 317 315 315 322 330 329 326 323 321 317 313 313 312 312 312 312 312 312 312 313 314 314 314 314 314 314 314 314 314 314 313 314
321 315 312 313 314 316 317 319 320 319 319 319 318 318 322 325 327 328 328 329 331 330 330 329 330 330 329 329 329 330 331 335 336 335 334 334 334 335 335 334 333 328 327 321 312 312 313 311 309 311 315 315 318 318 314 313 318 323 324 322 319 314 312 312 312 312 312 312 312 312 312 313 313 314 314 314 314 314 314 313 313 313 313 313 313
319 314 312 313 314 316 317 319 320 320 319 319 318 318 321 324 326 328 327 329 331 330 330 329 329 329 329 329 329 330 331 335 336 335 334 334 335 334 335 334 332 331 328 318 311 315 313 310 308 310 313 314 319 321 316 315 318 321 321 317 313 312 311 311 311 311 311 311 312 312 312 313 314 314 314 313 313 313 313 313 313 313 313 313 313
318 313 312 313 314 316 317 319 319 320 320 319 318 318 320 323 326 327 327 329 331 330 330 329 329 329 329 330 331 331 332 335 336 336 334 334 334 334 334 333 332 328 323 317 315 315 312 308 308 310 312 314 318 322 320 319 320 320 317 313 311 311 311 311 311 311 311 312 312 312 313 313 313 313 313 313 313 312 312 313 312 313 314 314 314
317 313 312 313 314 316 318 319 319 319 319 319 318 318 320 323 326 326 328 330 331 330 329 329 330 330 331 332 332 332 332 334 335 335 334 333 333 333 333 331 325 319 318 319 318 312 309 308 308 310 311 314 317 319 319 319 319 316 313 311 311 311 310 311 311 312 312 312 312 312 312 312 312 312 312 312 312 312 312 312 312 313 314 314 314
317 313 312 314 315 316 318 319 318 319 319 319 318 318 320 323 325 326 329 331 330 329 329 330 331 331 332 332 332 332 332 332 333 333 331 331 331 333 331 322 314 316 322 326 325 314 307 308 308 310 311 314 317 317 318 318 316 313 313 312 311 311 311 312 312 312 312 312 312 312 312 312 312 312 312 311 311 311 312 312 312 313 314 314 314
316 312 313 314 315 316 318 319 318 318 319 319 318 318 321 323 325 327 330 331 330 330 330 331 331 332 332 332 332 332 331 330 330 329 329 328 329 330 324 314 311 315 319 322 324 314 306 307 308 310 312 314 316 317 318 317 314 314 314 312 312 312 312 312 312 312 312 312 312 312 312 312 312 312 311 311 311 311 311 311 312 314 314 314 314
315 313 313 314 315 316 318 318 318 318 319 319 318 319 321 323 326 329 331 331 330 331 331 332 332 332 332 332 332 331 331 329 327 327 325 324 323 320 314 310 312 312 310 311 313 308 306 307 309 311 312 314 316 317 317 315 314 315 314 314 314 313 313 312 312 312 312 313 313 313 313 313 314 314 313 312 311 311 311 311 312 313 314 314 315
314 313 313 314 315 317 318 318 318 318 320 319 319 321 322 324 328 330 331 331 331 332 332 332 332 332 332 332 332 331 330 328 327 325 319 316 314 312 310 311 312 310 309 309 307 307 307 308 310 313 313 315 316 316 315 314 316 316 316 315 314 314 314 313 313 313 314 316 317 316 315 316 318 319 317 314 312 312 312 312 313 314 314 315 316
314 313 313 314 315 317 318 319 319 319 320 319 321 322 324 327 329 331 331 331 331 331 332 333 332 332 332 332 331 330 328 327 324 319 314 311 309 309 311 312 312 310 309 307 307 307 307 308 312 314 315 316 316 316 316 316 318 318 317 317 316 316 316 316 316 316 317 319 321 320 319 319 322 323 321 318 317 316 316 315 315 316 316 316 316
314 313 313 314 315 316 318 319 320 320 319 319 323 324 326 328 329 331 331 331 331 332 332 332 332 331 331 330 329 328 325 322 318 313 310 308 309 310 311 311 311 311 309 307 307 308 308 310 314 316 317 317 317 318 318 320 320 320 320 321 321 321 320 320 321 321 322 323 324 324 323 323 325 326 325 324 324 323 322 321 319 317 317 317 317
316 313 313 314 315 317 318 320 320 320 319 320 324 325 327 329 330 331 331 331 330 331 332 332 332 331 330 329 327 324 320 317 313 310 309 308 309 311 311 311 311 311 309 307 307 309 310 312 316 318 319 319 320 321 322 324 324 323 324 325 325 324 324 323 324 325 324 325 326 326 326 327 328 328 327 327 328 327 327 327 325 321 320 319 318
323 317 313 314 317 317 319 321 321 319 318 321 325 326 327 329 330 331 330 330 330 331 331 331 331 330 329 326 322 318 315 312 310 309 308 308 309 311 310 310 310 310 309 308 307 311 313 315 318 320 321 322 323 325 326 326 326 326 326 327 327 327 327 326 326 326 325 326 328 327 327 328 329 330 329 329 329 329 329 330 330 328 326 325 323
328 320 313 315 317 318 320 321 320 319 318 320 325 327 328 329 330 330 329 329 329 330 330 330 329 328 325 321 316 313 311 309 308 308 308 308 309 311 310 310 310 310 310 308 307 312 315 318 320 322 323 324 326 327 328 328 329 328 326 326 327 328 327 326 326 325 325 327 328 328 328 329 329 330 330 330 330 330 330 331 331 331 330 329 328
325 319 314 315 317 318 320 321 320 318 317 320 325 327 328 329 328 329 329 329 329 330 329 329 327 324 319 315 312 310 309 308 308 308 308 308 309 311 310 310 310 310 310 309 308 311 316 319 322 323 324 326 327 328 328 329 330 330 328 328 328 328 328 326 326 325 324 326 328 328 328 329 329 329 330 330 331 331 331 331 331 331 331 330 330
323 321 319 317 317 318 319 320 319 316 317 320 324 328 329 329 329 330 330 330 329 329 328 326 324 319 315 312 310 309 308 308 308 308 308 308 308 311 311 310 310 310 310 310 308 309 314 318 321 323 324 326 327 328 329 329 330 330 330 330 329 329 328 327 326 326 325 326 327 328 329 329 329 329 329 330 331 331 331 331 331 331 331 330 330
323 324 322 318 317 318 317 318 318 317 318 319 324 329 329 329 330 330 330 330 329 328 327 324 320 315 312 311 310 308 308 308 308 308 308 308 308 310 312 311 310 311 311 310 309 308 311 316 320 322 323 325 327 329 329 329 329 329 330 330 330 329 328 327 327 326 324 324 326 328 329 329 329 330 330 330 331 331 332 332 331 331 331 331 332
325 324 322 318 317 318 317 317 318 318 316 319 328 330 328 329 331 331 330 330 329 328 325 322 318 314 313 312 311 310 309 309 308 309 308 308 308 309 312 312 311 311 311 311 310 308 308 313 317 320 322 324 327 329 329 330 329 329 329 329 330 329 328 328 328 327 325 323 326 328 330 330 330 330 331 331 331 331 331 332 332 332 332 332 332
325 323 320 317 317 318 318 317 317 317 315 321 331 330 328 330 331 331 330 330 329 327 325 321 318 315 314 314 314 312 311 310 310 309 309 309 308 308 310 313 313 311 311 311 311 310 309 309 313 317 320 323 325 327 328 330 330 330 329 329 329 329 329 329 328 327 326 325 327 329 330 330 330 331 331 331 331 331 331 332 332 332 332 332 332
324 320 318 317 317 317 317 317 317 316 314 322 330 329 330 332 331 330 330 330 328 327 324 320 318 316 316 315 314 314 313 313 312 312 311 310 309 308 308 311 314 314 313 312 312 312 310 309 310 314 318 321 323 325 326 328 330 330 329 329 329 329 328 326 325 326 326 328 330 330 331 331 331 331 331 331 331 331 332 332 332 332 332 332 332
323 320 317 316 317 317 317 317 316 316 315 320 326 329 332 332 331 331 329 329 328 326 323 320 319 318 317 316 316 315 314 314 314 314 314 313 312 310 309 308 310 314 315 315 313 312 312 311 311 312 314 316 319 320 322 325 328 329 329 329 329 327 327 326 327 329 330 331 331 331 331 331 331 331 331 331 331 332 332 332 332 332 332 332 331
323 320 317 316 317 317 317 316 316 316 316 319 325 329 332 332 332 331 328 328 327 325 322 321 322 322 322 321 319 316 315 316 317 319 318 317 315 314 312 310 309 310 313 315 316 315 313 313 313 313 313 313 314 316 318 321 325 327 326 326 326 327 328 329 330 331 331 331 331 331 331 331 331 331 331 331 331 332 332 332 332 331 332 332 332
324 320 317 316 317 317 316 316 316 316 319 325 328 331 333 334 334 331 327 327 326 323 321 322 324 325 326 325 322 320 320 322 325 329 328 325 322 320 317 316 313 310 309 311 315 317 316 315 315 315 314 314 314 314 316 318 320 320 320 323 326 328 329 329 330 331 331 332 332 332 332 332 332 331 331 331 332 332 332 332 332 332 332 333 332
326 320 317 316 317 317 317 317 316 318 323 329 333 335 335 335 334 330 327 327 324 321 322 325 325 323 323 324 324 325 327 330 332 333 331 329 329 328 325 323 321 317 312 309 311 313 316 317 317 316 317 317 316 316 315 316 318 321 324 327 329 329 329 330 331 331 332 332 332 332 332 332 332 332 332 332 332 331 331 332 332 332 332 332 331
325 320 318 316 317 318 318 317 317 321 328 332 333 335 335 335 333 329 327 326 321 319 324 327 325 322 324 326 327 329 331 333 334 332 329 330 331 331 330 329 327 325 320 316 314 312 312 313 314 315 319 321 322 322 321 322 324 327 329 329 329 329 330 331 331 331 332 332 332 332 332 332 332 332 332 331 331 330 329 331 331 330 330 330 331
323 320 319 316 317 317 318 318 318 324 330 333 333 334 335 334 331 329 328 325 320 322 327 326 324 325 328 331 332 332 333 333 333 331 330 331 331 332 331 331 330 329 327 324 321 319 316 314 313 314 319 323 325 325 325 326 327 328 328 329 329 330 330 331 331 332 332 332 332 332 332 332 332 332 332 331 330 329 329 330 330 330 330 329 330
322 319 319 317 317 318 319 319 320 326 332 334 334 335 334 332 329 329 328 324 320 324 329 325 326 331 332 333 334 333 333 332 332 332 332 332 332 331 330 331 330 331 331 329 327 326 325 323 322 322 323 326 327 327 328 328 328 329 330 330 330 330 331 331 332 332 332 333 332 332 332 332 332 332 331 331 330 329 329 330 330 330 330 330 329
325 321 320 317 316 318 320 321 324 329 333 334 334 334 334 332 329 329 327 323 323 327 330 323 325 333 334 333 334 334 334 332 332 332 332 332 331 330 330 330 330 331 332 332 331 330 329 329 329 329 330 330 331 331 331 331 331 331 331 331 330 331 331 331 332 332 332 332 332 331 331 330 329 329 329 329 329 329 330 331 331 331 331 331 330
330 330 326 319 315 317 319 324 328 330 333 333 333 333 333 332 330 329 325 323 327 331 331 324 323 332 334 333 334 334 333 333 333 332 332 332 331 330 330 330 330 330 331 332 332 332 332 331 331 332 332 332 332 332 332 331 331 331 330 330 330 330 330 330 330 331 331 331 331 330 329 328 327 327 328 329 329 330 331 331 331 332 332 332 331
335 336 332 323 316 314 318 326 329 330 333 333 333 334 333 331 330 328 323 324 331 333 331 326 324 330 334 334 333 333 332 333 333 331 331 333 332 332 331 330 330 330 330 330 331 331 331 331 331 331 331 331 331 331 331 331 331 330 329 328 328 328 328 329 329 329 329 329 329 328 327 327 327 328 329 330 330 330 330 330 330 330 331 332 331
338 337 333 326 318 314 319 328 329 328 331 332 332 333 331 331 329 325 324 329 334 334 331 328 327 332 335 333 333 334 332 332 332 332 332 332 332 332 331 331 331 330 330 329 330 330 330 330 329 330 330 331 331 330 330 330 329 328 327 327 327 327 328 328 328 328 327 327 327 327 327 328 328 329 330 330 330 330 330 329 329 330 330 331 330
339 337 333 326 320 317 320 327 327 325 330 332 331 331 329 330 328 325 327 331 333 332 330 328 330 334 334 334 334 334 333 332 332 332 332 332 331 331 331 330 331 331 330 330 330 330 330 330 330 330 330 329 329 329 328 328 328 327 327 327 326 326 327 326 326 326 326 326 327 328 328 329 330 330 330 330 330 330 329 329 329 329 329 330 330
339 336 332 326 323 322 321 324 325 323 326 329 329 328 329 329 327 327 330 331 332 332 330 330 333 335 334 335 335 333 333 333 332 332 332 332 331 331 331 330 330 330 330 330 330 330 330 329 329 329 329 329 329 328 328 327 327 327 327 327 326 326 326 325 325 325 326 327 327 328 329 330 330 330 330 330 329 329 329 329 328 328 328 328 329
338 335 331 327 326 326 325 324 324 324 324 326 328 328 328 328 329 331 332 332 332 332 331 332 334 334 334 335 334 333 333 332 331 332 333 332 331 331 331 330 330 330 331 331 330 330 329 329 329 329 329 329 328 327 327 326 326 326 326 326 326 325 325 325 325 325 326 327 327 328 329 329 329 329 329 328 328 328 327 327 327 327 327 327 327
337 334 331 329 329 328 328 327 327 327 326 326 328 327 327 328 331 332 332 332 332 332 333 333 333 334 334 334 333 332 332 331 331 331 332 332 332 331 330 331 331 330 330 330 329 329 329 329 329 328 328 327 327 326 326 325 325 325 325 325 324 324 324 324 325 325 326 326 327 327 327 327 327 327 327 326 326 326 325 325 325 325 325 326 326
337 333 331 330 330 330 330 329 330 331 331 329 327 327 327 329 331 332 332 332 332 333 333 332 333 334 333 333 332 331 331 331 331 331 331 331 332 331 331 331 330 330 329 329 328 328 328 328 328 328 327 326 326 325 325 325 324 324 324 323 322 323 323 324 325 325 325 326 326 325 324 324 323 323 322 322 321 321 320 320 321 321 322 323 323
337 333 332 331 331 332 331 332 334 334 333 329 326 327 329 329 331 332 332 333 333 333 332 332 333 333 333 332 332 331 330 331 332 332 331 331 332 332 331 330 329 329 329 329 329 328 328 327 327 326 325 324 324 324 324 323 323 323 322 320 321 322 323 324 324 324 324 324 323 323 322 320 319 317 316 315 313 312 312 312 312 313 315 316 317
338 334 332 332 333 333 333 335 335 333 330 328 328 329 329 330 331 332 333 334 334 334 333 332 332 333 333 332 331 330 329 330 332 332 333 332 332 332 331 330 330 330 330 329 329 328 326 325 325 324 323 322 321 321 320 319 319 319 318 319 321 322 322 322 322 322 322 321 321 320 317 314 311 309 308 306 305 304 304 304 304 304 305 307 308
338 335 333 334 335 334 335 336 335 329 326 326 327 330 330 331 332 333 334 334 334 334 333 332 333 333 333 332 331 329 328 329 331 332 333 333 332 331 331 331 331 330 330 329 328 327 326 325 323 321 320 318 317 316 314 314 314 315 317 319 320 321 321 320 320 320 319 317 315 311 307 305 303 301 301 300 300 299 299 299 299 300 300 300 300
339 336 335 336 336 335 336 336 331 326 326 327 327 330 332 333 334 334 334 334 334 334 333 333 334 334 333 332 329 328 328 330 331 333 333 332 331 331 331 331 331 331 330 328 327 326 325 323 320 317 316 314 313 312 312 312 312 314 317 318 319 320 319 318 318 317 314 309 305 302 300 299 299 299 299 299 299 299 298 298 298 298 298 298 298
339 337 336 338 338 337 337 334 328 326 328 330 330 332 333 334 334 334 334 334 334 334 333 334 334 334 333 330 328 328 329 331 332 332 332 331 331 331 331 330 330 330 329 327 326 325 322 319 316 314 312 312 311 311 310 310 311 314 316 318 319 319 319 319 316 312 307 303 300 299 299 299 298 299 298 298 298 298 298 298 298 298 298 298 298
340 338 337 338 339 339 336 332 330 329 329 329 331 333 334 334 334 334 334 334 334 334 334 334 334 333 331 330 329 328 328 330 332 332 332 332 332 331 330 328 328 327 326 325 324 320 318 315 313 312 311 310 309 308 308 308 309 311 312 316 319 319 319 316 310 305 302 299 299 299 298 298 298 298 298 298 298 298 298 298 298 298 298 298 298
340 339 339 338 340 339 335 332 332 332 330 330 331 333 333 333 334 334 335 334 334 334 334 334 333 331 330 330 329 328 329 331 332 332 333 332 332 330 329 327 325 325 324 322 319 315 314 312 311 311 309 308 306 305 305 304 306 308 311 316 317 317 315 308 303 303 300 298 299 299 298 298 298 298 298 298 298 298 298 297 297 297 298 297 297
340 340 340 339 340 339 335 333 333 332 332 332 332 333 333 334 335 335 335 335 335 334 334 334 333 332 331 330 329 329 331 332 332 333 332 331 330 328 327 326 324 323 321 317 314 312 311 311 310 308 306 304 304 303 303 302 303 305 308 311 311 311 310 304 302 301 298 299 298 298 298 298 298 298 298 298 297 297 297 297 297 297 297 297 297
340 339 340 340 340 338 336 335 334 333 333 333 334 334 334 335 335 335 335 335 335 334 334 333 333 332 331 329 329 331 331 332 333 332 331 329 327 326 325 324 322 319 316 313 311 311 310 309 307 305 303 303 302 302 302 302 302 303 303 304 305 306 303 302 303 300 297 298 298 297 298 297 297 297 297 297 297 297 297 297 297 297 297 297 297
338 338 339 340 338 337 337 336 335 333 333 334 334 334 334 335 334 334 335 334 334 334 333 332 332 331 330 329 330 331 332 332 332 330 328 326 325 324 323 320 317 315 313 311 310 309 308 306 304 302 302 302 302 302 303 302 302 302 302 302 303 302 300 299 303 302 298 297 297 297 297 297 297 297 297 297 296 296 296 296 296 296 296 296 296
338 338 338 337 337 337 337 336 335 334 334 334 334 334 334 334 334 334 334 334 333 333 332 331 331 331 330 330 331 331 332 332 330 328 327 324 323 321 318 315 313 312 311 310 309 307 305 303 302 302 302 302 301 302 302 302 302 302 301 301 300 300 300 299 300 302 301 299 297 297 297 297 297 296 296 296 296 296 296 296 296 296 296 296 296
338 338 337 336 337 337 336 335 335 335 334 334 334 334 334 334 334 334 334 334 332 333 333 331 330 330 330 330 331 331 331 330 328 327 325 323 320 317 314 312 311 310 310 308 307 304 302 302 301 301 301 301 302 302 302 302 302 301 300 300 300 299 299 299 299 299 300 301 298 296 296 296 296 296 296 296 296 296 296 296 296 296 296 296 296
337 337 337 337 336 335 334 334 334 334 334 334 334 334 334 334 334 334 334 334 333 333 332 330 329 329 330 331 331 331 330 329 327 325 323 320 316 313 311 310 309 309 308 306 303 302 301 301 301 301 301 301 302 301 302 301 301 301 300 299 299 299 299 299 299 298 298 299 298 296 296 296 296 296 295 296 296 296 296 296 296 296 296 296 296
337 336 336 335 334 332 332 333 334 335 335 334 333 334 335 334 334 334 331 330 332 333 331 330 330 330 331 331 331 330 329 327 326 323 320 316 313 311 310 309 308 307 305 303 301 301 301 301 301 301 301 301 301 301 301 301 300 300 300 300 299 299 299 299 298 298 298 298 297 296 297 297 296 296 295 296 295 295 295 295 295 295 295 296 296
337 336 335 334 333 332 332 333 334 334 334 334 333 334 334 334 334 333 329 329 331 332 331 330 330 330 331 330 330 330 327 326 323 320 316 313 311 310 308 307 306 304 302 301 300 300 300 300 300 301 301 301 301 300 301 300 300 300 300 300 299 299 299 298 298 298 297 297 297 297 297 296 296 296 295 295 295 295 295 295 295 295 295 295 295
Wind_Speed
24 22 19 18 16 17 18 19 18 18 17 16 16 16 16 16 15 14 12 12 12 12 12 11 12 12 12 11 11 11 11 11 10 10 9 9 8 7 7 6 6 6 7 10 10 8 6 7 8 9 8 8 7 6 9 11 11 11 10 10 11 13 14 14 14 15 15 16 15 14 14 14 14 13 13 12 12 11 12 12 12 12 13 13 13
26 24 20 19 17 17 19 19 18 18 18 17 17 17 16 15 15 13 12 11 11 11 11 11 11 12 11 11 11 11 11 11 10 9 9 8 8 8 7 6 6 6 7 10 9 7 6 7 9 9 8 8 8 9 10 12 12 12 11 11 13 14 14 14 15 15 15 15 15 14 14 13 13 13 12 12 11 11 12 12 12 12 13 12 13
26 25 21 19 17 18 19 19 18 18 18 17 17 17 16 15 15 14 12 11 11 11 11 11 11 11 11 11 10 10 10 10 9 8 8 8 7 7 6 5 6 6 8 10 7 7 7 8 9 10 9 9 9 11 12 14 14 14 13 14 15 15 15 15 15 15 15 15 15 14 14 13 13 13 12 12 11 11 11 11 11 12 12 12 13
25 25 22 20 18 19 20 19 18 18 18 17 17 17 16 15 14 13 12 11 12 11 11 11 11 11 11 10 10 9 9 9 8 8 7 7 7 7 6 5 5 7 8 7 7 7 8 9 10 10 10 10 11 12 14 16 16 16 15 15 16 15 15 16 15 15 15 15 15 15 14 13 13 12 12 11 11 11 10 10 11 12 13 13 14
25 24 22 21 19 20 20 20 19 19 18 17 17 17 16 15 15 13 12 12 12 11 11 11 11 11 10 10 9 9 8 8 8 7 6 7 7 5 5 4 5 6 6 6 7 7 8 9 10 11 11 11 12 14 15 16 16 16 16 16 16 16 16 17 17 16 16 15 15 15 14 13 13 12 12 12 11 11 10 11 11 12 13 14 15
25 24 23 21 20 21 21 20 19 19 18 17 17 17 17 16 15 13 13 12 12 11 11 11 11 11 10 10 9 9 8 7 6 6 5 5 5 4 4 4 5 5 6 8 7 7 9 10 11 11 12 13 14 16 16 17 17 16 16 16 16 16 17 17 17 16 16 15 15 14 14 14 14 13 13 13 12 12 12 12 12 12 13 14 15
23 23 23 21 21 22 21 21 20 19 19 18 17 18 17 16 15 14 13 12 12 12 12 11 11 11 11 10 9 8 7 7 6 5 4 4 5 6 5 6 6 5 6 8 8 8 9 11 12 12 14 15 16 16 16 16 16 16 16 16 16 16 16 16 16 15 15 15 14 14 14 14 15 15 14 14 13 13 13 13 13 13 13 14 15
22 21 21 20 21 21 21 21 20 20 19 18 18 18 17 16 15 14 13 13 12 12 12 11 11 11 11 10 9 8 7 6 6 5 4 5 6 6 6 6 6 5 5 6 6 7 9 11 13 14 15 16 16 16 16 16 15 15 15 15 15 15 15 15 15 14 14 14 14 13 14 15 15 15 15 15 15 15 14 14 14 14 14 15 16
21 19 19 19 19 20 21 21 21 20 20 19 18 17 17 15 15 14 14 13 12 12 11 11 11 11 10 10 9 8 7 6 5 4 4 6 6 6 6 7 6 5 5 6 7 7 9 12 14 15 16 16 16 16 15 15 15 15 15 14 14 15 14 14 13 13 13 13 14 14 14 15 16 16 16 16 16 16 16 15 15 15 15 16 16
20 18 17 18 18 19 20 21 21 21 20 19 18 17 16 15 15 14 14 13 12 12 11 11 11 10 10 10 9 7 6 5 5 4 5 7 7 7 7 7 7 6 5 6 8 7 10 14 15 15 16 16 15 15 15 14 14 14 13 13 13 13 13 13 13 12 13 13 13 14 14 15 16 16 16 16 16 16 16 16 16 16 16 17 17
19 17 17 18 18 19 20 21 21 21 20 19 18 17 16 15 15 14 14 13 12 11 11 11 10 10 10 9 8 7 6 5 4 5 6 8 8 8 8 8 7 6 6 6 8 9 11 14 15 15 15 15 15 14 13 13 12 12 12 12 12 11 11 12 12 12 12 12 12 13 13 14 15 16 15 15 16 16 16 17 17 17 17 17 17
18 17 18 18 18 19 21 21 21 21 21 19 18 16 15 15 15 14 13 12 11 11 11 11 10 10 10 9 7 6 5 4 4 5 7 8 8 9 9 9 8 7 6 6 8 10 12 14 15 15 15 14 14 13 12 11 11 11 11 11 11 10 10 10 10 10 10 11 11 12 13 14 15 15 14 15 16 16 17 17 17 17 17 17 16
17 17 18 19 19 20 21 22 21 21 21 19 18 16 15 15 14 14 12 11 11 11 11 10 10 9 8 7 7 6 5 5 5 6 7 8 8 8 9 9 9 8 7 6 8 11 12 14 14 14 14 14 13 12 11 10 9 10 10 10 9 9 8 8 9 9 9 10 10 10 11 12 13 14 14 14 15 15 16 17 17 17 17 17 16
17 17 19 20 19 21 22 21 21 20 20 19 18 16 15 15 14 13 12 11 11 11 11 10 10 8 7 7 6 6 6 6 6 6 6 8 8 8 9 9 9 8 8 7 8 11 13 13 14 14 13 13 12 11 10 8 7 8 8 8 8 8 7 8 8 8 8 8 9 9 10 10 11 12 13 13 14 14 15 16 16 16 16 16 16
17 18 19 19 19 21 22 21 21 20 20 20 18 16 15 15 13 12 12 12 11 11 11 10 9 8 7 7 7 7 7 6 6 6 6 7 7 8 8 9 10 9 8 7 8 11 12 13 13 13 13 12 11 10 9 7 6 6 6 6 6 6 7 7 7 7 7 7 8 9 8 9 9 10 11 12 12 13 14 15 15 15 16 15 15
18 18 18 19 19 20 21 20 20 20 20 20 18 15 14 14 12 12 12 12 12 11 10 9 9 8 7 7 7 7 7 7 6 6 6 7 7 7 8 9 10 9 9 8 7 9 12 12 12 12 12 11 10 9 8 6 5 4 4 4 5 5 6 6 6 7 7 6 7 8 8 8 8 9 10 10 11 12 13 14 14 15 15 15 15
19 18 18 18 19 20 20 20 20 20 20 19 17 15 14 13 11 12 12 12 12 11 10 9 9 8 8 8 8 7 7 7 6 6 6 6 7 7 8 9 10 10 9 8 8 8 11 12 12 12 11 10 9 8 7 6 4 3 3 3 4 4 5 6 6 7 7 7 7 7 7 8 9 9 10 10 11 11 12 13 13 14 14 14 14
19 19 19 18 19 20 20 21 21 20 20 18 16 14 13 12 12 12 12 12 11 10 10 9 8 8 9 9 8 7 7 7 7 7 6 6 6 6 7 8 9 10 9 9 8 8 9 12 12 11 10 10 9 8 7 5 4 2 1 1 2 3 5 6 6 7 8 8 7 6 7 8 9 9 10 11 11 11 12 12 13 13 13 13 13
20 19 19 19 20 20 20 21 21 21 20 19 15 14 13 12 12 12 13 12 11 10 9 8 8 9 9 9 8 8 7 7 7 7 6 7 7 6 6 6 8 9 9 9 8 7 8 10 11 11 10 10 9 8 7 6 4 3 2 2 2 3 5 7 8 9 9 8 7 7 7 8 9 9 10 11 11 12 12 12 12 13 13 13 12
21 20 19 19 20 20 21 21 22 21 21 20 17 15 13 13 13 13 13 12 11 10 8 8 8 8 9 9 9 8 8 8 8 7 6 7 7 6 5 5 6 7 8 8 8 7 7 7 8 10 10 10 9 8 7 6 5 4 4 4 4 4 6 7 8 9 9 8 7 8 8 9 9 10 11 11 11 12 12 12 12 13 13 13 13
22 20 20 20 20 21 21 22 22 21 21 21 18 16 14 14 13 13 13 12 11 9 8 8 9 9 9 9 9 8 8 8 7 7 6 6 6 6 5 4 5 6 6 7 7 7 7 7 7 7 8 9 9 8 7 7 6 6 6 5 4 5 6 6 7 7 7 7 8 9 9 10 11 11 12 12 12 12 12 12 12 14 14 14 13
23 22 21 21 21 21 22 22 21 21 21 20 18 16 15 14 14 14 13 12 10 8 9 9 9 9 8 8 8 8 8 7 7 7 6 6 6 6 5 5 4 4 5 6 6 6 6 6 6 6 6 7 7 7 7 7 7 7 7 6 4 5 5 5 5 6 7 8 9 10 10 11 12 12 12 12 12 13 13 12 14 15 16 15 14
24 22 22 22 22 22 21 20 20 20 20 18 17 16 15 16 14 14 14 12 10 9 10 10 10 9 8 8 8 9 8 8 7 6 5 4 5 5 5 4 4 4 4 4 5 6 6 6 5 5 5 5 5 6 6 7 7 6 5 4 4 5 5 6 6 7 8 8 9 10 10 10 11 11 11 11 12 12 12 13 14 16 16 16 15
24 22 22 22 22 22 21 20 20 20 19 17 16 16 15 16 14 14 14 12 10 10 11 10 9 9 9 9 9 8 7 6 5 5 4 3 4 3 3 3 3 4 4 3 4 4 5 5 5 4 4 4 4 5 5 5 5 4 4 4 5 6 6 7 7 8 9 10 10 11 11 12 12 11 11 11 11 12 13 14 14 15 16 16 15
23 23 22 23 22 21 21 21 21 19 18 17 16 15 15 14 14 14 13 11 11 11 11 10 10 10 10 10 8 7 6 5 4 4 3 3 3 2 2 2 2 2 3 3 2 2 3 4 4 4 4 4 4 5 5 5 5 5 5 5 6 7 7 8 9 10 11 11 12 14 15 15 15 15 14 14 14 15 16 15 14 15 15 14 12
24 23 21 22 22 21 21 21 21 19 17 16 15 14 14 15 15 14 13 11 11 12 11 10 11 11 9 8 7 7 6 5 5 4 3 2 2 1 1 1 1 1 2 2 1 1 1 2 3 3 3 3 3 4 4 4 5 5 6 7 7 8 8 9 10 11 12 13 14 15 16 16 17 16 16 16 17 17 16 15 15 15 15 13 11
24 23 20 20 21 21 21 21 20 18 17 15 14 14 15 15 15 13 12 12 12 12 10 10 11 9 8 7 7 7 6 5 5 4 3 2 2 1 1 0 1 1 1 1 1 1 1 0 0 1 1 1 2 3 3 4 4 5 6 7 8 8 9 10 11 12 12 13 15 15 16 17 17 16 16 16 16 16 15 14 15 15 14 13 12
23 22 20 20 21 21 20 19 18 17 17 16 14 14 15 16 15 13 12 12 12 11 9 10 10 7 6 6 5 6 5 5 5 4 4 3 2 1 1 1 1 1 2 2 1 2 2 2 1 1 1 2 3 4 4 5 5 6 7 8 9 10 10 11 11 12 12 13 14 15 16 16 16 16 16 15 15 13 12 13 13 14 14 13 12
22 21 20 20 21 21 20 18 17 17 16 16 14 14 15 17 15 13 13 13 12 10 9 9 9 6 5 5 4 5 5 5 4 3 3 3 2 2 2 2 2 1 2 2 2 2 2 2 2 2 2 2 3 5 5 6 7 8 9 10 10 11 11 12 12 12 12 13 14 15 15 15 16 15 14 13 13 12 11 11 11 12 12 12 12
22 20 20 20 21 21 20 18 17 17 16 15 14 13 15 16 14 13 14 13 11 9 8 7 8 6 5 5 4 3 3 3 3 2 2 2 2 3 3 2 2 1 1 1 2 2 2 2 2 2 2 3 4 5 6 7 8 9 9 10 11 11 11 12 12 12 13 12 13 14 14 14 14 14 14 13 12 12 11 11 12 12 11 12 13
22 21 21 21 20 21 20 18 17 17 15 15 14 13 15 15 14 14 14 12 10 8 7 6 7 6 5 4 3 2 1 2 2 2 2 3 3 3 3 2 1 1 1 1 2 2 2 2 2 3 3 3 4 5 6 7 8 9 9 10 10 11 11 11 12 12 12 11 11 11 12 13 13 14 14 14 13 12 12 12 13 13 12 12 13
23 22 23 22 21 21 20 18 17 17 15 14 14 15 15 15 14 15 14 11 10 8 7 6 6 5 4 3 2 1 1 2 3 3 3 2 3 3 3 2 3 2 2 2 3 3 3 3 4 4 5 5 6 6 7 8 9 9 10 10 11 11 11 10 10 10 10 10 9 9 10 11 12 13 13 13 13 12 12 12 13 13 14 14 14
23 23 23 23 22 21 21 19 17 16 15 15 15 16 16 15 15 15 14 12 10 8 7 6 5 4 3 2 2 1 2 3 4 4 3 2 2 3 4 4 4 3 3 4 5 5 5 5 5 6 7 7 7 8 8 9 10 10 10 10 10 10 10 9 9 9 9 9 9 9 10 11 11 12 13 13 13 13 13 13 12 13 14 15 16
23 24 25 24 22 22 21 19 17 16 16 16 16 16 16 16 16 15 13 11 9 8 7 6 5 3 2 1 1 1 3 3 4 3 2 2 2 3 5 5 5 4 5 6 6 7 7 7 7 8 8 8 8 9 9 9 10 10 10 10 10 9 9 9 9 8 8 8 8 9 9 10 10 11 12 13 13 13 13 13 13 13 14 15 16
24 25 26 24 23 22 21 19 18 18 17 17 17 17 17 17 17 15 13 11 9 8 7 6 4 2 1 1 1 1 2 3 3 3 2 1 2 4 5 5 5 5 6 6 7 7 8 8 8 8 8 9 9 10 9 9 9 10 9 9 9 8 8 8 7 7 7 7 8 9 9 9 10 11 12 13 14 14 14 14 14 14 15 15 16
24 25 26 25 24 22 21 20 20 19 18 18 19 19 18 18 17 15 13 10 9 8 7 6 4 3 2 1 1 1 1 1 2 3 3 2 3 5 5 5 5 5 6 7 7 7 8 8 8 8 9 9 10 10 10 9 9 9 8 8 7 7 7 6 6 6 6 7 8 9 10 10 11 12 13 14 14 15 15 14 14 14 14 15 15
24 25 26 25 24 23 22 22 22 20 19 20 21 20 19 19 17 15 13 10 9 9 7 6 4 3 2 2 2 1 1 1 1 2 3 2 3 4 5 5 6 6 6 6 7 8 8 8 8 8 9 9 9 10 9 8 8 7 6 6 5 5 5 4 4 5 6 7 9 10 12 13 13 14 14 15 15 15 15 14 14 14 14 15 15
24 25 25 25 24 24 24 23 22 20 20 21 22 21 19 18 17 15 13 11 10 9 7 6 4 4 3 1 2 3 3 2 1 1 2 2 2 4 5 5 6 6 6 6 7 8 8 9 9 9 9 8 7 7 6 5 5 4 3 3 3 3 2 3 5 6 8 9 11 12 13 14 14 15 15 15 15 15 15 15 14 14 15 15 15
24 25 25 24 24 24 25 23 22 21 20 22 22 20 19 18 17 16 14 12 11 8 7 6 5 4 3 2 4 4 2 1 1 0 1 2 2 3 4 5 6 7 7 7 8 8 9 10 9 8 7 5 5 4 4 3 2 2 2 2 2 1 2 4 6 7 9 11 12 13 13 14 14 14 14 14 15 16 17 17 16 16 16 16 15
23 25 26 24 24 25 25 25 22 20 20 22 22 21 20 18 17 16 15 13 10 8 6 7 6 5 4 4 4 3 2 1 1 1 1 2 3 4 4 6 7 7 8 8 8 8 9 8 7 6 5 5 5 5 4 2 1 2 2 3 2 1 3 5 7 9 10 11 12 13 13 14 14 14 15 16 16 17 18 19 19 19 18 17 17
24 25 26 25 24 25 27 24 21 19 20 21 20 20 19 18 17 15 14 12 9 8 7 7 7 6 6 5 4 3 2 1 0 1 2 4 5 6 7 8 8 8 8 7 7 7 6 5 5 6 6 6 5 4 3 1 1 2 3 4 2 1 3 6 8 9 10 12 13 14 14 14 14 16 17 17 18 18 19 20 21 21 21 20 19
26 26 27 27 26 28 27 22 20 21 21 20 19 19 18 17 15 14 12 11 9 8 8 8 7 7 7 5 3 2 2 1 1 3 5 7 8 9 10 10 8 7 6 6 6 5 4 4 5 6 6 6 5 4 4 2 1 3 3 3 2 1 3 6 8 8 11 13 15 15 15 15 16 17 18 18 19 20 20 21 22 22 22 22 22
28 28 28 29 29 29 27 23 24 24 21 22 22 19 18 15 13 12 11 10 9 8 8 8 8 8 7 5 3 2 1 1 3 5 8 10 11 11 10 9 7 6 6 5 4 4 4 5 6 6 6 6 5 4 4 3 1 2 2 2 3 4 3 5 7 9 12 14 15 16 16 16 17 18 18 19 20 21 21 22 23 23 24 24 23
29 29 28 29 29 29 28 25 25 22 19 22 22 19 18 15 13 12 11 9 8 8 8 8 9 8 7 4 3 1 2 3 6 8 10 12 12 11 9 7 6 5 5 4 5 6 6 6 6 6 7 6 5 5 7 7 6 4 3 3 5 6 5 4 6 10 12 14 15 16 16 16 18 19 19 20 21 22 22 23 24 24 25 25 25
30 29 27 28 28 27 27 23 21 19 19 21 21 19 18 16 15 14 12 11 10 9 9 10 10 9 6 4 3 2 3 5 8 10 11 12 10 7 6 4 4 4 4 5 6 6 7 6 7 7 6 6 7 7 8 10 10 9 7 6 6 6 6 4 5 8 10 13 15 16 16 17 18 19 20 20 21 21 22 23 23 24 24 25 25
28 27 25 26 25 22 21 21 19 19 19 20 19 18 17 16 16 16 14 13 13 11 9 9 10 9 6 4 2 2 4 7 9 11 12 10 6 3 2 3 3 5 5 6 7 7 7 7 7 7 6 8 9 8 9 10 10 11 11 10 9 9 10 8 6 6 6 12 16 16 17 18 18 19 20 19 19 20 21 22 23 25 26 26 27
27 25 23 23 21 18 18 19 18 18 19 18 17 17 17 17 17 15 13 12 11 10 9 8 9 8 6 3 2 3 6 8 10 12 10 7 3 1 2 3 5 5 6 7 7 7 8 7 7 8 8 10 10 9 10 10 10 11 13 13 13 13 13 12 10 7 4 8 16 17 17 19 19 20 20 20 20 21 22 24 25 27 28 29 29
26 23 21 18 17 18 18 17 17 18 17 16 16 16 16 16 16 13 12 12 10 9 9 8 8 8 5 3 2 5 7 9 11 10 7 3 1 3 4 5 6 6 6 7 7 7 8 8 8 9 9 10 10 10 11 11 12 14 15 14 14 14 13 13 13 12 9 7 14 19 18 18 20 20 20 20 20 22 23 24 25 26 28 28 29
25 20 19 18 17 18 18 17 17 18 17 16 16 14 14 14 13 11 11 12 10 8 8 8 8 7 5 3 4 5 7 9 10 7 4 2 3 4 5 6 6 6 7 7 7 8 8 8 8 9 9 9 10 10 11 13 14 15 15 14 14 13 12 14 14 16 16 13 15 20 21 21 21 21 21 20 20 21 23 23 25 26 27 28 29
24 19 19 19 18 17 16 17 18 18 17 16 14 13 14 13 10 10 10 10 10 9 9 8 8 6 4 3 4 5 8 10 8 4 3 2 4 5 5 6 6 6 7 8 8 9 8 8 8 9 9 9 10 11 12 14 14 13 13 12 13 13 13 15 17 18 19 18 18 20 21 21 20 20 21 20 21 23 25 25 26 27 28 29 30
22 19 20 21 18 16 16 18 19 18 17 15 12 13 14 11 9 11 11 9 10 9 9 8 7 5 4 3 4 7 9 9 5 3 3 3 5 5 6 6 6 7 8 9 9 8 8 8 8 9 9 10 11 12 12 13 13 12 12 12 13 15 15 17 19 19 19 20 19 19 20 20 19 19 19 19 20 22 25 26 27 28 28 28 29
Wind_Direction
171 170 170 170 168 166 166 166 166 160 155 155 153 152 152 149 149 144 137 135 137 134 132 129 125 124 121 120 120 118 117 114 111 109 104 98 90 79 68 57 43 35 25 13 20 40 60 83 102 115 112 108 103 108 142 161 160 145 135 129 122 118 111 105 109 113 112 106 98 95 96 94 90 86 83 80 76 73 71 65 61 58 55 51 47
168 167 170 171 170 168 167 168 167 162 158 158 156 154 154 153 152 147 142 138 138 136 133 130 127 124 122 120 118 116 114 112 111 108 101 93 86 78 67 53 40 34 16 6 21 52 71 91 105 117 114 108 96 91 122 147 148 138 129 122 117 111 103 101 103 103 100 96 92 90 90 87 83 78 72 70 66 61 60 57 53 52 49 45 44
167 164 170 172 170 170 169 169 169 165 161 162 158 155 157 155 154 151 146 143 142 139 136 132 129 126 123 120 116 115 113 111 110 105 99 92 82 75 66 49 37 21 1 3 29 64 84 99 107 116 114 108 102 97 108 124 128 123 119 115 111 105 101 101 100 99 97 94 91 88 85 79 74 70 64 60 58 51 49 50 51 52 47 42 39
169 163 169 173 171 173 170 170 170 167 164 165 160 157 160 158 156 154 150 147 146 142 139 136 132 130 126 123 118 116 113 113 110 103 96 88 81 75 66 48 27 5 359 18 50 74 91 104 110 115 113 110 109 108 108 114 117 116 115 110 106 103 101 100 98 98 96 94 91 87 82 75 70 67 61 55 53 49 45 44 46 49 45 41 38
170 164 169 172 172 174 172 170 170 169 166 167 161 159 162 160 158 156 153 149 148 145 142 139 135 133 129 126 120 116 113 114 111 107 99 93 92 81 68 46 9 3 23 50 60 79 98 108 113 114 113 111 112 113 113 115 116 114 112 106 103 102 101 99 97 96 94 93 90 86 79 71 66 61 55 49 45 43 41 40 39 42 40 37 36
171 167 170 173 172 174 173 170 171 170 168 169 163 163 165 162 160 157 155 151 148 145 143 141 138 134 130 128 123 118 113 112 111 109 104 99 95 78 64 44 26 37 63 70 69 88 106 112 115 114 112 109 111 115 117 117 116 113 109 106 104 102 101 99 97 95 93 91 88 84 76 68 61 53 48 44 40 37 37 37 36 35 33 31 30
173 169 171 174 174 175 174 170 172 171 169 170 166 166 166 162 161 159 156 154 150 146 143 141 138 134 129 127 125 122 114 108 106 105 104 93 88 81 66 52 52 64 76 83 84 94 108 116 117 116 113 111 114 117 118 119 118 113 109 107 105 102 100 97 95 93 91 88 84 79 72 65 58 50 44 41 39 36 36 36 34 30 27 25 25
175 172 173 175 176 177 175 172 172 172 171 171 169 168 165 163 162 161 160 157 153 148 145 142 137 133 129 128 127 124 116 107 104 104 102 90 86 79 64 64 71 75 79 93 97 103 117 122 121 118 116 115 119 121 122 122 119 113 109 107 104 101 98 95 93 90 87 81 76 74 69 63 57 51 46 44 40 36 35 33 30 27 23 22 23
174 175 176 178 181 179 176 175 173 173 173 172 170 168 164 165 165 164 164 161 157 152 149 144 138 134 130 130 128 125 118 112 109 103 91 86 83 79 76 83 86 84 85 96 104 113 125 128 125 122 120 120 123 126 126 125 119 112 109 107 103 100 96 93 90 87 82 76 71 67 65 62 57 51 47 46 42 38 34 30 28 26 24 23 24
173 175 177 182 184 181 179 176 175 174 173 172 170 167 167 168 168 168 167 163 160 155 151 145 139 136 133 132 130 127 125 121 117 106 94 90 88 89 92 95 92 88 89 98 109 120 131 133 129 126 125 126 127 128 128 125 118 111 108 104 101 97 93 88 84 81 75 70 66 63 61 60 56 50 47 46 43 40 35 31 29 27 26 26 25
173 175 178 184 187 183 181 178 177 176 174 173 170 169 169 170 171 171 169 165 161 157 152 147 143 140 137 136 134 133 132 129 120 108 100 97 96 98 102 102 99 97 95 100 114 124 134 136 132 130 129 129 129 129 127 123 116 109 105 99 95 91 86 81 76 73 70 65 62 60 57 55 52 48 44 43 41 37 35 31 28 26 25 25 24
173 177 182 186 188 184 182 180 179 177 176 174 171 172 172 172 173 172 171 165 161 158 153 149 147 145 143 138 137 137 135 129 119 110 103 100 99 103 107 108 106 103 101 104 116 126 134 137 135 134 132 131 130 128 125 118 113 107 101 94 88 84 79 74 68 66 65 61 57 56 52 50 48 44 39 37 35 32 30 29 28 26 23 21 19
174 181 187 187 187 183 182 182 180 179 177 176 175 174 173 173 174 173 171 165 161 158 155 153 152 150 145 139 137 135 131 125 115 110 102 100 101 104 110 111 111 107 105 108 121 131 137 140 139 137 136 135 132 128 122 113 108 104 100 92 86 81 74 67 63 63 63 57 51 48 46 47 46 41 36 32 30 27 26 26 27 25 21 17 13
181 186 190 189 187 183 183 183 181 180 178 179 179 177 176 176 176 174 169 165 164 160 158 158 155 151 143 138 135 131 125 121 112 107 101 101 103 106 110 110 112 109 106 109 126 138 143 146 144 142 141 139 135 129 122 114 106 101 97 91 84 76 68 62 56 58 60 53 44 39 39 42 42 39 36 29 25 23 23 24 24 22 18 14 9
188 189 193 193 188 183 184 185 182 181 181 182 181 179 179 179 177 172 168 167 166 164 162 159 155 148 143 138 130 127 121 116 108 103 99 101 105 108 110 111 112 110 108 109 127 145 150 152 151 149 148 145 140 135 128 120 109 95 88 82 74 64 56 53 46 45 48 43 31 27 32 35 33 31 31 26 19 17 18 19 18 16 13 9 7
193 193 196 194 188 185 185 186 184 183 184 183 181 180 180 179 175 170 171 172 169 166 163 158 154 147 140 133 126 124 118 113 105 99 97 99 106 110 111 113 114 113 110 108 122 147 157 159 160 157 155 153 148 142 136 127 116 98 83 65 54 44 37 36 30 28 31 27 17 18 23 20 17 15 16 16 13 11 10 10 10 8 5 3 3
195 197 199 194 187 187 188 186 185 185 184 182 182 183 181 178 174 174 176 174 170 166 163 158 152 143 133 125 121 119 114 110 103 98 95 96 103 113 116 115 118 118 115 113 117 141 161 167 167 166 163 161 159 154 148 139 129 116 96 62 39 21 14 16 10 7 8 6 6 11 12 6 3 3 4 5 5 4 0 0 1 359 357 357 359
197 201 199 193 188 189 190 186 184 185 183 180 182 185 181 176 176 178 179 176 172 168 163 157 147 137 127 120 118 116 112 108 103 99 95 95 99 112 122 121 123 125 124 120 118 132 157 171 174 174 174 172 171 169 163 158 154 152 145 82 11 353 350 352 351 349 349 351 356 357 356 355 356 0 1 359 357 354 351 350 351 351 350 351 354
200 202 197 193 190 191 190 186 185 185 182 176 180 186 179 177 181 182 181 178 175 171 162 152 144 134 125 122 121 118 112 108 104 101 95 93 94 104 120 125 124 126 128 127 124 125 142 166 177 181 182 183 183 183 180 178 180 195 210 237 286 313 326 331 333 333 337 345 348 343 344 345 350 355 354 351 346 343 342 341 343 344 344 345 347
202 202 198 195 193 193 191 188 186 186 183 178 180 182 177 181 184 182 181 179 178 171 158 148 141 132 127 125 124 121 115 110 107 103 97 92 91 93 104 122 128 127 128 130 131 129 131 148 171 185 192 195 196 197 197 196 199 215 227 238 266 297 312 316 317 320 328 338 341 338 339 340 343 345 342 339 335 334 334 335 338 338 338 338 338
201 201 200 197 195 195 192 191 190 188 186 183 182 176 177 185 184 181 181 180 180 168 154 146 138 133 130 127 124 123 120 115 110 103 96 90 88 87 90 105 126 134 132 133 135 137 137 139 153 175 194 204 208 210 211 211 213 223 237 247 268 298 311 313 313 319 326 334 338 336 335 335 336 336 333 331 328 328 329 332 334 331 328 327 330
199 200 199 197 195 193 193 194 192 189 186 186 183 174 177 187 183 182 182 182 179 165 153 144 138 136 133 130 127 127 125 119 110 98 89 86 81 80 82 88 102 126 139 142 144 145 149 149 152 164 183 200 209 215 218 220 223 231 245 257 278 301 309 310 313 318 325 333 334 331 329 329 330 331 330 327 325 325 328 331 328 323 317 315 321
199 199 198 196 193 192 193 195 192 189 185 184 180 173 180 188 182 182 184 181 175 163 152 143 138 138 138 137 133 131 128 121 112 98 92 88 81 73 69 73 80 95 119 143 155 160 159 159 163 172 182 190 198 207 212 217 225 236 249 264 284 297 300 305 313 317 323 329 327 323 321 322 325 327 327 324 321 321 321 319 316 315 313 313 319
199 199 198 195 191 191 193 194 192 189 184 182 179 176 185 188 182 184 185 179 172 161 149 143 141 139 141 143 139 136 130 124 117 109 110 97 86 77 60 54 59 73 89 113 146 165 171 172 176 184 188 189 193 199 203 210 221 236 252 267 281 290 297 307 316 319 320 321 317 315 315 315 317 317 317 313 310 311 310 309 310 314 315 314 317
197 199 198 195 191 192 194 194 193 189 184 184 183 182 186 185 184 186 183 175 170 159 147 144 145 142 141 143 143 140 135 130 120 114 110 87 78 86 75 44 29 45 67 85 104 135 159 176 185 191 192 190 195 202 209 218 234 252 267 276 284 292 299 308 315 317 315 313 312 313 315 315 315 313 311 309 311 314 313 312 315 318 317 314 315
197 200 198 194 190 192 195 197 195 190 186 186 186 185 186 186 187 187 182 175 168 157 148 147 147 146 143 144 147 145 141 134 123 117 107 81 76 90 97 27 336 352 27 48 56 70 104 150 177 189 198 202 209 221 232 245 261 274 284 289 295 301 306 313 315 315 311 309 310 313 315 316 315 313 312 314 316 317 317 317 320 322 324 323 322
197 200 199 193 190 193 197 199 197 190 186 188 187 187 188 189 189 186 183 177 167 158 155 153 151 147 148 153 154 149 143 135 127 121 115 95 90 103 116 64 311 309 335 339 336 327 339 9 170 184 201 245 271 276 276 279 288 296 304 310 315 318 318 318 315 313 310 308 310 313 315 316 316 314 314 314 314 315 317 318 320 324 328 331 330
197 199 200 196 194 196 198 199 196 188 186 188 188 188 189 190 188 186 183 176 167 163 161 159 157 149 148 160 158 150 145 139 137 133 127 114 102 90 95 65 4 325 317 303 297 300 299 303 310 321 312 307 306 309 313 314 320 322 325 329 330 328 324 319 316 313 311 310 312 315 317 318 316 314 312 309 308 311 315 317 323 329 332 337 338
197 198 200 201 200 199 199 196 193 187 185 187 188 187 188 191 190 185 180 174 168 166 165 162 160 155 152 165 164 150 143 136 133 130 124 124 115 70 57 52 37 351 317 288 284 300 301 299 300 305 302 310 318 323 329 332 334 334 333 333 331 327 323 319 317 314 314 313 314 316 316 315 314 313 310 305 304 309 316 321 330 341 345 348 347
197 199 200 203 203 202 199 192 190 188 185 185 186 185 188 192 190 183 177 172 170 167 167 163 161 161 159 168 169 154 142 130 116 101 95 96 86 62 51 50 50 13 338 315 319 325 320 314 309 312 324 331 332 330 334 337 335 333 332 331 327 324 322 320 318 316 316 315 314 314 313 314 315 315 314 312 311 312 318 322 329 339 345 348 349
200 200 200 202 204 204 198 191 190 189 185 185 184 183 188 191 187 180 176 173 174 172 170 164 162 163 161 164 163 154 125 99 77 54 50 40 41 54 53 46 49 37 20 351 355 355 342 338 335 341 346 344 340 337 340 340 333 329 328 327 326 326 323 321 320 318 317 316 314 314 314 316 318 318 317 317 319 321 323 325 328 329 329 333 337
203 202 199 199 202 203 200 193 192 190 187 184 184 185 184 185 183 179 178 180 179 177 173 162 163 166 158 157 151 148 67 41 20 16 21 15 29 51 46 39 39 33 28 18 18 14 0 350 347 350 352 352 349 345 343 337 329 326 326 327 327 326 325 325 326 325 325 324 322 321 320 321 320 319 318 319 321 325 328 330 331 328 325 324 323
206 203 199 198 199 202 203 198 195 194 191 187 186 185 181 180 181 181 181 184 183 181 174 163 166 167 155 160 151 124 49 25 6 7 10 6 35 46 33 29 26 20 19 17 15 8 359 352 349 350 351 351 346 339 336 330 325 324 325 326 327 328 331 334 335 334 334 332 330 328 325 323 321 319 319 321 323 327 331 333 334 331 327 325 322
209 204 199 198 200 202 204 200 197 197 194 192 189 186 182 180 182 182 182 185 187 185 177 170 172 170 167 170 149 93 46 21 10 10 357 0 31 29 19 14 11 14 16 10 4 357 350 347 346 346 345 341 333 327 328 327 324 325 327 329 330 333 336 335 335 335 335 333 332 329 325 322 321 321 323 326 329 332 334 335 335 332 329 325 323
211 205 199 199 202 204 204 200 198 198 197 194 191 190 185 183 184 183 185 188 189 188 183 181 179 186 202 189 159 80 37 17 22 15 341 347 18 11 6 4 2 7 10 4 356 349 343 340 337 336 334 329 323 320 322 325 326 327 328 329 330 331 330 330 331 331 330 331 331 327 326 325 326 327 329 330 331 332 332 332 330 326 323 319 315
211 205 201 202 204 205 203 201 200 199 198 196 192 192 187 185 187 186 190 193 193 194 189 184 187 199 203 191 173 101 13 355 25 10 343 348 7 4 2 358 355 357 2 357 347 341 336 330 327 326 324 322 318 315 317 321 322 320 320 322 324 324 323 324 325 327 331 335 335 333 334 334 334 335 334 333 331 329 327 325 323 319 315 312 309
212 206 203 204 205 206 205 204 202 199 200 198 192 189 186 186 189 191 194 198 199 198 191 186 192 197 185 171 171 190 264 272 9 346 335 347 4 1 356 350 349 352 352 345 337 331 327 323 323 322 319 319 314 310 312 314 312 309 310 315 318 316 315 320 331 342 347 346 342 341 342 340 340 339 337 335 331 328 327 325 323 320 316 312 310
214 207 205 208 209 208 206 204 202 200 200 194 186 184 184 186 190 195 199 202 202 196 191 191 196 193 176 163 193 217 235 216 190 309 318 334 351 341 337 340 341 342 336 331 327 324 324 324 324 324 324 324 316 312 317 317 310 304 304 303 298 298 314 344 355 355 351 347 346 345 345 344 343 342 341 340 336 335 335 335 334 330 327 323 320
216 208 206 209 210 208 206 204 201 199 194 186 183 183 184 187 192 198 204 206 203 195 193 198 200 193 177 191 208 213 223 193 168 218 298 316 325 324 328 330 328 329 327 325 323 322 325 327 327 331 336 340 337 339 345 340 318 290 272 260 248 267 7 11 359 354 352 351 353 353 354 354 353 352 352 353 350 347 347 347 348 347 345 343 339
217 209 207 208 208 208 208 203 197 193 186 181 184 185 184 190 197 202 207 207 203 199 202 204 202 194 187 204 206 196 193 156 141 227 283 301 307 315 323 323 320 319 319 319 319 321 323 326 335 346 356 3 2 5 9 353 294 239 225 225 201 126 33 15 358 353 358 3 7 8 9 7 5 4 4 4 1 356 355 354 355 356 356 355 354
217 209 207 208 208 211 210 199 190 189 184 181 186 189 189 195 200 203 206 209 209 206 208 208 202 195 194 202 198 176 170 150 104 304 317 316 317 324 327 325 322 317 315 316 320 323 327 339 356 5 11 14 7 10 20 22 245 235 223 218 202 90 11 359 352 356 10 19 21 19 17 15 12 12 11 9 5 2 360 359 359 359 359 359 360
217 209 207 209 209 213 211 194 185 191 187 184 190 195 197 202 206 207 209 213 213 206 205 207 201 195 195 195 189 170 158 148 301 305 321 325 327 329 326 326 325 324 324 325 330 340 356 8 10 11 16 14 10 15 28 44 247 254 239 215 200 81 4 350 354 14 28 29 26 22 18 16 17 17 16 11 8 6 4 3 2 1 1 2 2
217 211 209 211 212 214 210 191 185 193 189 186 191 198 204 208 212 213 215 217 209 202 202 204 199 191 188 184 182 177 172 245 292 307 318 322 324 322 320 323 327 333 340 346 3 20 26 21 15 16 17 15 20 37 53 63 115 218 218 181 148 121 69 10 16 32 31 28 24 21 19 17 19 18 15 12 10 8 7 6 5 4 4 3 3
218 215 211 214 216 214 210 194 186 192 194 190 192 201 208 209 212 214 218 216 205 204 205 199 190 185 184 182 184 211 256 286 303 312 317 316 315 313 314 323 333 346 2 17 31 32 29 23 18 20 20 23 34 59 75 76 84 102 138 139 120 112 96 49 45 42 31 27 23 22 22 20 19 17 14 12 10 9 9 8 7 7 6 5 5
220 216 213 216 216 211 208 199 189 193 199 196 195 204 208 208 209 207 206 205 201 204 206 198 188 185 188 186 187 224 274 300 309 313 314 311 307 306 315 334 355 19 30 34 37 32 29 24 23 28 26 35 45 55 71 73 73 77 88 104 105 95 89 86 76 56 38 30 27 25 24 22 20 18 16 14 12 11 11 11 11 11 9 9 9
219 214 214 216 214 209 207 205 197 193 198 199 201 209 212 214 216 209 203 200 199 201 206 204 196 191 191 191 198 258 294 306 312 314 311 303 297 308 348 19 40 46 42 39 38 31 29 28 31 38 35 47 53 52 63 66 65 66 68 75 80 79 80 84 95 90 55 38 34 30 26 23 22 20 19 17 15 14 13 13 13 12 12 11 11
219 214 216 214 210 208 207 205 200 194 198 203 209 215 216 221 225 222 215 209 208 210 208 209 207 202 198 202 238 291 302 307 313 314 305 291 288 52 63 66 60 52 44 40 38 32 35 37 39 44 43 50 54 46 52 57 56 57 58 59 61 64 65 68 82 93 88 50 37 34 30 24 21 21 19 17 15 14 14 15 14 13 12 11 11
216 212 211 207 201 204 207 205 203 203 205 210 216 221 220 222 226 226 219 213 221 226 213 208 209 208 205 215 269 289 298 308 313 311 295 271 142 93 85 75 62 51 45 41 41 40 45 46 45 49 48 52 53 44 46 50 48 50 51 51 51 54 55 58 65 63 64 60 33 31 31 25 22 21 19 18 17 15 16 17 16 14 11 9 9
214 208 202 199 197 203 207 203 205 209 210 215 220 223 221 223 230 226 209 204 215 220 213 211 208 206 210 233 271 287 300 311 313 301 262 211 117 98 86 74 62 52 48 47 50 51 53 54 55 59 56 54 53 46 45 47 48 49 49 49 49 51 51 51 53 50 50 51 33 26 25 23 22 19 17 18 19 18 18 17 16 14 10 8 7
215 204 195 198 202 206 202 198 206 211 211 217 223 225 223 223 225 210 191 200 219 214 208 212 208 207 222 250 284 303 310 314 307 270 206 157 113 97 83 73 62 55 55 55 58 59 63 66 67 69 64 58 55 49 48 49 51 52 51 51 49 47 46 44 43 41 40 40 33 25 22 23 23 20 16 15 16 17 17 15 14 13 10 7 5
216 208 202 203 206 206 200 200 208 210 212 221 223 225 226 216 203 193 184 202 223 215 209 214 211 213 232 264 303 311 313 311 286 214 172 132 107 92 80 73 63 60 62 63 68 73 78 80 77 73 67 60 57 51 51 54 52 52 50 47 45 43 42 40 38 36 33 32 30 25 22 22 24 24 20 17 18 18 16 12 9 10 9 6 4